Regional Weather Roundup
Issued by NWS Midland/Odessa, TX

Skip options and go directly to product.
Home | Oldest Version | Previous Version | Current Version | All | Graphics & Text | Save Text | Print | Product List | Glossary On

Skip product version selection by date and time.   
689
ASUS44 KMAF 080201
RWRMAF
MIDLAND AREA WEATHER ROUNDUP
NATIONAL WEATHER SERVICE MIDLAND TX
800 PM CST WED DEC 07 2016

...IN SOUTHWEST TEXAS AND SOUTHEAST NEW MEXICO...

CITY           SKY/WX    TMP DP  RH WIND       PRES   REMARKS
ALPINE         CLOUDY    52  34  50 CALM      30.19R
ANDREWS        CLOUDY    39  36  87 E14       30.21R WCI  31
ARTESIA        CLOUDY    45  39  81 E12       30.17R WCI  39
BIG SPRING     CLOUDY    40  36  83 N14G21    30.24R WCI  33
CARLSBAD       PTCLDY    43  39  86 E8        30.14R WCI  38
DRYDEN           N/A     48  45  89 NE5       30.10R
FORT STOCKTON  PTCLDY    48  45  89 NE7       30.11R
GUAD PASS      CLOUDY    44  34  67 NE20      30.14R WCI  36
HOBBS          CLOUDY    37  36  93 NE17      30.20R WCI  28
MARFA          CLOUDY    49  29  46 N7        30.14R
MIDLAND AIRPK  CLOUDY    42  37  81 NE17      30.21R WCI  34
MIDLAND INTL   CLOUDY    41  36  82 NE23      30.19R WCI  31
ODESSA         CLOUDY    41  35  79 NE18G29   30.19R WCI  32
PECOS          CLOUDY    46  42  83 NE12      30.12R
PRESIDIO       FAIR      65  34  31 N5        30.02R
SEMINOLE       CLOUDY    39  33  78 NE10      30.23R WCI  33
SNYDER         CLOUDY    37  33  85 NE13G20   30.26R WCI  29
WINK           CLOUDY    44  39  82 NE17      30.14R WCI  36
$$
...OTHER STATIONS IN TEXAS...

CITY           SKY/WX    TMP DP  RH WIND       PRES   REMARKS
ABILENE        CLOUDY    41  39  93 N13       30.24R WCI  34
AMARILLO       CLOUDY    24  17  74 N15       30.34R WCI  11
AUSTIN         CLOUDY    54  49  83 N15       30.14R
BROWNSVILLE    MOCLDY    73  70  90 E3        29.98R
CORPUS CHRISTI CLOUDY    61  58  90 NE15      30.04R
DALLAS FTW     CLOUDY    49  37  63 N15       30.23R
DEL RIO        CLOUDY    51  48  89 W5        30.10R
EL PASO        CLOUDY    53  34  48 S6        30.07R
HOUSTON INT    CLOUDY    56  53  90 N8        30.11R
LUBBOCK        CLOUDY    34  26  72 NE14G21   30.26R WCI  25
SAN ANGELO     CLOUDY    47  42  83 NE15G23   30.18R
SAN ANTONIO    CLOUDY    55  48  77 NE9       30.11R
WACO           CLOUDY    51  46  83 N12       30.20R
WICHITA FALLS  NOT AVBL
$$
...OTHER LOCATIONS IN NEW MEXICO...

CITY           SKY/WX    TMP DP  RH WIND       PRES   REMARKS
ALAMAGORDO     NOT AVBL
ALBUQUERQUE    CLOUDY    37  17  44 SE5       30.16R WCI  33
CANNON AFB     CLOUDY    26  19  73 NE23      30.26R WCI  12
CLOVIS         CLOUDY    27  14  59 NE17G24   30.26R WCI  14
HOLLOMAN AFB   CLOUDY    51  27  39 SE6       30.11R
ROSWELL        CLOUDY    41  25  53 NE15G24   30.18R WCI  33
RUIDOSO        CLOUDY    37  25  60 E13       30.18R WCI  29
SANTA FE       CLOUDY    29  11  47 NE10      30.14R WCI  20
TRUTH OR CONSE CLOUDY    49  22  34 N9        30.07R
TUCUMCARI      CLOUDY    24  15  68 NE16      30.31R WCI  11
$$